Showing default

LIZZIESAT-2, 62383

Orbit data source: Space-Track

LIZZIESAT-2, 62383 is a payload satellite owned by Sidus Space (US) in LEO that was launched on Sat, 21 Dec 2024 UTC via an FALCON 9 launch vehicle from the Air Force Western Test Range (AFWTR). Payload-class satellites include a variety of spacecraft equipped with specific instruments for various scientific and technological missions. These include communications satellites like Starlink; space stations such as the ISS; scientific satellites like the Hubble; Earth observation satellites from companies like Planet Labs, Umbra, and HawkEye 360; GPS; miniature CubeSats for education and research; and military/defense satellites.

Loading next visibility...
Identifier
62383, 2024-247G
Orbit
LEO
Country
Flag of USUS
Related business
Manufacturer
Sidus Space
Mission
Operational Commercial Technology
Bus & Motor
LIZZIESAT, Unknown motor
Mass
~100 kg wet, ~100 kg dry
Launch date (UTC)
2024-12-21 (11 months ago)
Launch vehicle
FALCON 9
Launch site
Air Force Western Test Range (AFWTR)
Object type
Payload
Rocket body
Debris
Shape & HBR
Oct Cyl + 8 Pan, 0.7 m
Radar Cross Section
1.008 m², Medium (>0.1 m² and < 1m²)

Expand to show TLE details & history
Last TLE update: 1 day ago

TLE from 1 day ago
0 LIZZIESAT-2
1 62383U 24247G   25338.18675056  .00019259  00000-0  74234-3 0  9999
2 62383  44.9900 277.0969 0002078  68.4342 291.6762 15.26093170 53144
Epoch: 2025-12-04T04:28Z
TLE epoch observation values (Epoch: 2025-12-04T04:28:55.248Z)
Latitude
0.00001°
Longitude
136.61991°
Altitude
486.976 km
Speed
7.624 km/s
True Right ascension
18h 28m 23s
True Declination
0° 00' 00"
Sunlit
Object was in daylight at epoch
Visualization orbit readout
Latitude
Unknown
Longitude
Unknown
Altitude
Unknown
Speed
Unknown
Apparent Right ascension
Unknown
Apparent Declination
Unknown
Sunlit
N/A
Visualization observer readout
Local Sidereal Time
12:22:06
Azimuth
Unknown
Elevation
Unknown
Doppler factor
Unknown
Orbital elements
Apogee altitude
490.542 km
Perigee altitude
487.688 km
Semi-major axis
6,867.252 km
Eccentricity
0.00021
Inclination
44.99°
RAAN
277.0969°
Arg. of periapsis
68.4342°
True anomaly
291.65407°
Mean anomaly
291.6762°
Eccentric anomaly
291.66514°
Mean motion
3.81389 °/min
Orbital period
94.39 mins
BSTAR
0.00074234
Loading maneuver chart data...
Computing Atmospheric mass density...
Loading historical data...
Loading historical data...
Loading historical data...
Loading historical data...
Loading historical data...
Loading historical data...
Loading historical data...

Documentation

Showing up to 5 results
|